Location: *
(37.5724°S, 58.0067°E)
Time: 11:25:41
(UTC+00:00)

Lacrosse 5 rocket - Pass Details

Date: 26 September 2020
Orbit: 460 x 636 km, 57.0° (Epoch: 29 October)

Event Time Altitude Azimuth Distance (km) Brightness Sun altitude
Exits shadow 22:56:26 15° 158° (SSE) 1,540 4.1 -33.2°
Drops below altitude 10° 22:57:13 10° 153° (SSE) 1,819 4.6 -33.1°
Sets 22:59:30 0° 144° (SE) 2,684 5.8 -32.7°
